Tracking 18851 objects as of 25-Nov-2017
HD Live streaming from Space Station
objects crossing your sky now

FENGYUN 1C DEB

Track FENGYUN 1C DEB now!
10-day predictions


NORAD ID: 37427
Int'l Code: 1999-025EGV
Perigee: 472.2 km
Apogee: 844.1 km
Inclination: 98.6 °
Period: 97.7 minutes
Semi major axis: 7029 km
RCS: 0.005 m2 (small)
Launch date: May 10, 1999
Source: People's Republic of China (PRC)
Launch site: Taiyaun Space Center, China (TSC)

Note: This is SATELLITE DEBRIS
aabbcc
Your satellite tracking list
Your tracking list is empty




NASA's NSSDC Master Catalog

Two Line Element Set (TLE):
1 37427U 99025EGV 17327.46441680 +.00000960 +00000-0 +92741-4 0  9993
2 37427 098.6103 213.2652 0264526 287.1280 070.1116 14.73157231168540
Source of the keplerian elements: AFSPC